Location: Carnoy
(49.9849°N, 2.7558°E)
Time: 06:19:28
(UTC+00:00)

CZ-4C R/B - Pass Details

Date: 24 January 2020
Orbit: 644 x 1358 km, 63.4° (Epoch: 24 February)

Event Time Altitude Azimuth Distance (km) Brightness Sun altitude
Rises 17:07:39 0° 315° (NW) 3,814 5.9 -6.4°
Reaches altitude 10° 17:10:10 10° 312° (NW) 2,954 5.4 -6.8°
Maximum altitude 17:17:09 56° 236° (WSW) 1,426 3.8 -7.8°
Drops below altitude 10° 17:25:07 10° 161° (SSE) 3,347 5.3 -9.0°
Sets 17:28:08 0° 158° (SSE) 4,353 5.9 -9.5°
